Dickinson, ND

2:03 AM MDT on August 20, 2017 (GMT -0600)
Dickinson Municipal

Weather History for KDIK - March, 2013

Change the Weather History Date:

Saturday, March 2, 2013

  Actual Average Record
Temperature  
Mean Temperature 41 °F 25 °F  
Max Temperature 51 °F 35 °F 70 °F (1905)
Min Temperature 30 °F 14 °F -29 °F (1916)
Degree Days  
Heating Degree Days 24 40  
Month to date heating degree days 61 81  
Since 1 July heating degree days 6039 6375  
Cooling Degree Days 0 0  
Month to date cooling degree days 0 0  
Year to date cooling degree days 0 0  
Moisture  
Dew Point 32 °F    
Average Humidity 71    
Maximum Humidity 89    
Minimum Humidity 52    
Precipitation  
Precipitation T in 0.02 in 0.29 in (1966)
Month to date precipitation T 0.03  
Year to date precipitation 0.08 0.66  
Sea Level Pressure  
Sea Level Pressure 30.02 in    
Wind  
Wind Speed 9 mph (NW)    
Max Wind Speed 20 mph    
Max Gust Speed 25 mph    
Visibility 10 miles    
Events      
T = Trace of Precipitation, MM = Missing Value Source: NWS Daily Summary

Daily Weather History Graph

Daily Weather History Graph

Search for Another Location

Airport or City:

Trip Planner

Search our weather history database for the weather conditions in past years. The results will help you decide how hot, cold, wet, or windy it might be!

Date:

Astronomy

Mar. 02, 2013 Rise Set
Actual Time 6:28 AM MST 5:38 PM MST
Civil Twilight 5:58 AM MST 6:09 PM MST
Nautical Twilight 5:23 AM MST 6:44 PM MST
Astronomical Twilight 4:47 AM MST 7:19 PM MST
Moon 11:44 PM MST (3/2) 8:36 AM MST (3/2)
Length of Visible Light 12h 11m
Length of Day
11h 10m
Waning Gibbous, 73% of the Moon is Illuminated
Mar 2
Waning Gibbous
Mar 4
Last Quarter
Mar 11
New
Mar 19
First Quarter
Mar 27
Full

Hourly Weather History & Observations

Time (MST) Temp. Windchill Dew Point Humidity Pressure Visibility Wind Dir Wind Speed Gust Speed Precip Events Conditions
12:56 AM 30.9 °F 21.7 °F 25.0 °F 79% 30.10 in 10.0 mi South 11.5 mph - N/A   Overcast
1:56 AM 34.0 °F 27.2 °F 28.0 °F 79% 30.08 in 10.0 mi SSW 8.1 mph - 0.00 in   Overcast
2:56 AM 37.0 °F 30.4 °F 30.0 °F 76% 30.06 in 10.0 mi WSW 9.2 mph - N/A   Overcast
3:56 AM 36.0 °F 29.0 °F 28.9 °F 76% 30.06 in 10.0 mi West 9.2 mph - N/A   Clear
5:56 AM 32.0 °F 24.8 °F 28.0 °F 85% 30.07 in 10.0 mi West 8.1 mph - N/A   Clear
6:56 AM 34.0 °F 26.0 °F 30.0 °F 85% 30.07 in 10.0 mi West 10.4 mph - N/A   Clear
7:56 AM 39.0 °F 32.3 °F 32.0 °F 76% 30.07 in 10.0 mi WNW 10.4 mph - N/A   Clear
8:56 AM 42.1 °F 35.2 °F 33.1 °F 70% 30.08 in 10.0 mi WNW 12.7 mph - N/A   Clear
9:56 AM 46.0 °F 39.6 °F 34.0 °F 63% 30.07 in 10.0 mi NW 15.0 mph - N/A   Clear
10:56 AM 46.0 °F 39.9 °F 34.0 °F 63% 30.08 in 10.0 mi NNW 13.8 mph - N/A   Clear
11:56 AM 48.0 °F - 34.0 °F 58% 30.06 in 10.0 mi NNW 9.2 mph - N/A   Clear
12:56 PM 48.0 °F - 34.0 °F 58% 30.02 in 10.0 mi NNW 8.1 mph - N/A   Mostly Cloudy
1:56 PM 51.1 °F - 35.1 °F 54% 30.02 in 10.0 mi WNW 12.7 mph - N/A   Mostly Cloudy
2:56 PM 51.1 °F - 35.1 °F 54% 30.01 in 10.0 mi NNW 6.9 mph - N/A   Clear
3:56 PM 50.0 °F - 34.0 °F 54% 30.00 in 10.0 mi NW 6.9 mph - N/A   Clear
4:56 PM 46.0 °F 43.9 °F 34.0 °F 63% 30.00 in 10.0 mi North 4.6 mph - N/A   Clear
5:56 PM 37.9 °F 34.4 °F 32.0 °F 79% 30.02 in 10.0 mi ENE 4.6 mph - N/A   Clear
6:56 PM 37.0 °F 31.6 °F 32.0 °F 82% 30.00 in 10.0 mi East 6.9 mph - N/A   Clear
7:56 PM 36.0 °F 32.1 °F 30.9 °F 82% 29.98 in 10.0 mi SSE 4.6 mph - N/A   Clear
8:56 PM 34.0 °F 29.8 °F 30.0 °F 85% 29.96 in 10.0 mi ESE 4.6 mph - N/A   Clear
9:56 PM 33.1 °F 27.7 °F 30.0 °F 89% 29.93 in 10.0 mi ESE 5.8 mph - N/A   Clear
10:56 PM 33.1 °F 27.7 °F 30.9 °F 92% 29.92 in 10.0 mi East 5.8 mph - N/A   Clear
11:56 PM 33.1 °F 26.1 °F 30.9 °F 92% 29.88 in 9.0 mi SE 8.1 mph - N/A   Clear